Tillbaka till svenska Fidonet
English   Information   Debug  
FILM   0/18
FNEWS_PUBLISH   4851
FN_SYSOP   42078
FN_SYSOP_OLD1   71952
FTP_FIDO   0/2
FTSC_PUBLIC   0/13916
FUNNY   0/4886
GENEALOGY.EUR   0/71
GET_INFO   105
GOLDED   0/408
HAM   4554/16597
HOLYSMOKE   0/6791
HOT_SITES   0/1
HTMLEDIT   0/71
HUB203   466
HUB_100   264
HUB_400   39
HUMOR   0/29
IC   1252/2851
INTERNET   0/424
INTERUSER   0/3
IP_CONNECT   719
JAMNNTPD   0/233
JAMTLAND   0/47
KATTY_KORNER   0/41
LAN   0/16
LINUX-USER   0/19
LINUXHELP   0/1155
LINUX   0/22279
LINUX_BBS   0/957
mail   18.68
mail_fore_ok   249
MENSA   0/341
MODERATOR   0/102
MONTE   0/992
MOSCOW_OKLAHOMA   0/1245
MUFFIN   0/783
MUSIC   0/321
N203_STAT   938
N203_SYSCHAT   313
NET203   321
NET204   69
NET_DEV   0/10
NORD.ADMIN   0/101
NORD.CHAT   0/2572
NORD.FIDONET   189
NORD.HARDWARE   0/28
NORD.KULTUR   0/114
NORD.PROG   0/32
NORD.SOFTWARE   0/88
NORD.TEKNIK   0/58
NORD   0/453
OCCULT_CHAT   0/93
OS2BBS   0/787
OS2DOSBBS   0/580
OS2HW   0/42
OS2INET   0/37
OS2LAN   0/134
OS2PROG   0/36
OS2REXX   0/113
OS2USER-L   207
OS2   0/4823
OSDEBATE   0/18996
PASCAL   0/490
PERL   0/457
PHP   0/45
POINTS   0/405
POLITICS   0/29554
POL_INC   0/14731
PSION   103
R20_ADMIN   1133
R20_AMATORRADIO   0/2
R20_BEST_OF_FIDONET   16
R20_CHAT   0/896
R20_DEPP   0/3
R20_DEV   400
R20_ECHO2   1763
R20_ECHOPRES   0/35
R20_ESTAT   0/719
R20_FIDONETPROG...
...RAM.MYPOINT
  0/2
R20_FIDONETPROGRAM   0/22
R20_FIDONET   0/248
R20_FILEFIND   0/24
R20_FILEFOUND   0/22
R20_HIFI   0/3
R20_INFO2   3656
R20_INTERNET   0/12940
R20_INTRESSE   0/60
R20_INTR_KOM   0/99
R20_KANDIDAT.CHAT   42
R20_KANDIDAT   28
R20_KOM_DEV   112
R20_KONTROLL   0/13360
R20_KORSET   0/18
R20_LOKALTRAFIK   0/24
R20_MODERATOR   0/1852
R20_NC   76
R20_NET200   245
R20_NETWORK.OTH...
...ERNETS
  0/13
R20_OPERATIVSYS...
...TEM.LINUX
  0/44
R20_PROGRAMVAROR   0/1
R20_REC2NEC   534
R20_SFOSM   0/341
R20_SF   0/108
R20_SPRAK.ENGLISH   0/1
R20_SQUISH   107
R20_TEST   2
R20_WORST_OF_FIDONET   20
RAR   0/9
RA_MULTI   106
RA_UTIL   0/162
REGCON.EUR   0/2067
REGCON   0/13
SCIENCE   0/1206
SF   0/239
SHAREWARE_SUPPORT   0/5146
SHAREWRE   0/14
SIMPSONS   0/169
STATS_OLD1   0/2539.065
STATS_OLD2   0/2530
STATS_OLD3   0/2395.095
STATS_OLD4   0/1692.25
SURVIVOR   0/495
SYSOPS_CORNER   0/3
SYSOP   0/84
TAGLINES   0/112
TEAMOS2   0/4530
TECH   0/2617
TEST.444   0/105
TRAPDOOR   0/19
TREK   0/755
TUB   0/290
UFO   0/40
UNIX   0/1316
USA_EURLINK   0/102
USR_MODEMS   0/1
VATICAN   0/2740
VIETNAM_VETS   0/14
VIRUS   0/378
VIRUS_INFO   0/201
VISUAL_BASIC   0/473
WHITEHOUSE   0/5187
WIN2000   0/101
WIN32   0/30
WIN95   0/4291
WIN95_OLD1   0/70272
WINDOWS   0/1517
WWB_SYSOP   0/419
WWB_TECH   0/810
ZCC-PUBLIC   0/1
ZEC   4

 
4DOS   0/134
ABORTION   0/7
ALASKA_CHAT   0/506
ALLFIX_FILE   0/1313
ALLFIX_FILE_OLD1   0/7997
ALT_DOS   0/152
AMATEUR_RADIO   0/1039
AMIGASALE   0/14
AMIGA   0/331
AMIGA_INT   0/1
AMIGA_PROG   0/20
AMIGA_SYSOP   0/26
ANIME   0/15
ARGUS   0/924
ASCII_ART   0/340
ASIAN_LINK   0/651
ASTRONOMY   0/417
AUDIO   0/92
AUTOMOBILE_RACING   0/105
BABYLON5   0/17862
BAG   135
BATPOWER   188/361
BBBS.ENGLISH   0/382
BBSLAW   0/109
BBS_ADS   0/5290
BBS_INTERNET   0/507
BIBLE   0/3563
BINKD   0/1119
BINKLEY   0/215
BLUEWAVE   0/2173
CABLE_MODEMS   0/25
CBM   0/46
CDRECORD   0/66
CDROM   0/20
CLASSIC_COMPUTER   0/378
COMICS   0/15
CONSPRCY   0/899
COOKING   40764
COOKING_OLD1   5078/24719
COOKING_OLD2   0/40862
COOKING_OLD3   24833/37489
COOKING_OLD4   0/35496
COOKING_OLD5   9370
C_ECHO   0/189
C_PLUSPLUS   0/31
DIRTY_DOZEN   0/201
DOORGAMES   0/2234
DOS_INTERNET   0/196
duplikat   6102
ECHOLIST   0/18295
EC_SUPPORT   0/318
ELECTRONICS   0/359
ELEKTRONIK.GER   1534
ENET.LINGUISTIC   0/13
ENET.POLITICS   0/4
ENET.SOFT   0/11701
ENET.SYSOP   34241
ENET.TALKS   0/32
ENGLISH_TUTOR   0/2000
EVOLUTION   0/1335
FDECHO   0/217
FDN_ANNOUNCE   0/7068
FIDONEWS   24878
FIDONEWS_OLD1   0/49742
FIDONEWS_OLD2   0/35949
FIDONEWS_OLD3   0/30874
FIDONEWS_OLD4   0/37224
FIDO_SYSOP   12919
FIDO_UTIL   0/180
FILEFIND   0/209
FILEGATE   0/212
Möte HAM, 16597 texter
 lista första sista föregående nästa
Text 2910, 787 rader
Skriven 2009-04-16 23:30:19 av Amsat List (1:323/120.0)
Ärende: [keps]  orb09106.amsa
=============================
[keps]  orb09106.amsa

Return-Path: <keps-bounces@amsat.org>
X-Rcpt: craig.healy@chowda.com
X-UIDL: 1239981388.245

SB KEPS @ AMSAT  $ORB09106.O
Orbital Elements  09106.OSCAR

HR AMSAT ORBITAL ELEMENTS FOR OSCAR SATELLITES
FROM WA5QGD FORT WORTH,TX April 16, 2009
Send Subscribe/unsubscribe to KEPS at 
http://www.amsat.org/mailman/listinfo/keps
BID: ORB09106.O
TO ALL RADIO AMATEURS BT

Satellite: AO-07
Catalog number: 07530
Epoch time:      09106.63785497
Element set:     453
Inclination:      101.4322 deg
RA of node:       133.5638 deg
Eccentricity:    0.0012120
Arg of perigee:   029.9979 deg
Mean anomaly:     330.1784 deg
Mean motion:   12.53575647 rev/day
Decay rate:       -2.7e-07 rev/day^2
Epoch rev:           57500
Checksum:              301

Satellite: AO-10
Catalog number: 14129
Epoch time:      09106.05380253
Element set:     644
Inclination:      025.9422 deg
RA of node:       161.6537 deg
Eccentricity:    0.5990006
Arg of perigee:   214.6431 deg
Mean anomaly:     085.4045 deg
Mean motion:   02.05869145 rev/day
Decay rate:      -2.15e-06 rev/day^2
Epoch rev:           19434
Checksum:              283

Satellite: UO-11
Catalog number: 14781
Epoch time:      09106.67876109
Element set:     938
Inclination:      098.1121 deg
RA of node:       150.5781 deg
Eccentricity:    0.0009012
Arg of perigee:   168.4763 deg
Mean anomaly:     191.6701 deg
Mean motion:   14.79704392 rev/day
Decay rate:       -5.2e-07 rev/day^2
Epoch rev:           34873
Checksum:              314

Satellite: RS-15
Catalog number: 23439
Epoch time:      09105.89567860
Element set:    0199
Inclination:      064.8141 deg
RA of node:       005.5463 deg
Eccentricity:    0.0146995
Arg of perigee:   063.5561 deg
Mean anomaly:     298.0359 deg
Mean motion:   11.27553217 rev/day
Decay rate:       -3.9e-07 rev/day^2
Epoch rev:           58909
Checksum:              342

Satellite: FO-29
Catalog number: 24278
Epoch time:      09106.77084656
Element set:      16
Inclination:      098.5624 deg
RA of node:       349.0395 deg
Eccentricity:    0.0351147
Arg of perigee:   149.4174 deg
Mean anomaly:     212.7960 deg
Mean motion:   13.52943084 rev/day
Decay rate:        1.9e-07 rev/day^2
Epoch rev:           62544
Checksum:              326

Satellite: SO-33
Catalog number: 25509
Epoch time:      09106.82636327
Element set:     432
Inclination:      031.4318 deg
RA of node:       039.4627 deg
Eccentricity:    0.0354471
Arg of perigee:   162.0611 deg
Mean anomaly:     199.2887 deg
Mean motion:   14.28251517 rev/day
Decay rate:       4.18e-06 rev/day^2
Epoch rev:           54705
Checksum:              305

Satellite: AO-40
Catalog number: 26609
Epoch time:      09105.66069202
Element set:     216
Inclination:      009.1977 deg
RA of node:       023.4368 deg
Eccentricity:    0.7962000
Arg of perigee:   194.9139 deg
Mean anomaly:     106.0662 deg
Mean motion:   01.25584647 rev/day
Decay rate:      -3.56e-06 rev/day^2
Epoch rev:            3884
Checksum:              312

Satellite: RS-22
Catalog number: 27939
Epoch time:      09105.83696871
Element set:    0767
Inclination:      097.9529 deg
RA of node:       342.9469 deg
Eccentricity:    0.0013222
Arg of perigee:   334.0857 deg
Mean anomaly:     025.9684 deg
Mean motion:   14.63307866 rev/day
Decay rate:        6.3e-07 rev/day^2
Epoch rev:           29645
Checksum:              359

Satellite: VO-52
Catalog number: 28650
Epoch time:      09105.84807636
Element set:     202
Inclination:      097.7465 deg
RA of node:       169.4751 deg
Eccentricity:    0.0026153
Arg of perigee:   231.3891 deg
Mean anomaly:     128.4936 deg
Mean motion:   14.81570093 rev/day
Decay rate:      -3.23e-06 rev/day^2
Epoch rev:           21341
Checksum:              305

Satellite: PO-63
Catalog number: 29712
Epoch time:      09106.78550690
Element set:     407
Inclination:      097.8342 deg
RA of node:       164.6467 deg
Eccentricity:    0.0015328
Arg of perigee:   112.5192 deg
Mean anomaly:     247.7642 deg
Mean motion:   14.80506949 rev/day
Decay rate:       5.50e-06 rev/day^2
Epoch rev:           12238
Checksum:              318

/EX
SB KEPS @ AMSAT  $ORB09106.D
Orbital Elements  09106.MICROS

HR AMSAT ORBITAL ELEMENTS FOR THE MICROSATS
FROM WA5QGD FORT WORTH,TX April 16, 2009
Send Subscribe/unsubscribe to KEPS at 
http://www.amsat.org/mailman/listinfo/keps
BID: ORB09106.D
TO ALL RADIO AMATEURS BT

Satellite: AO-16
Catalog number: 20439
Epoch time:      09106.42896332
Element set:     582
Inclination:      098.2739 deg
RA of node:       077.6601 deg
Eccentricity:    0.0011097
Arg of perigee:   000.0506 deg
Mean anomaly:     000.0694 deg
Mean motion:   14.31821005 rev/day
Decay rate:       -6.0e-08 rev/day^2
Epoch rev:             431
Checksum:              258

Satellite: LO-19
Catalog number: 20442
Epoch time:      09105.79736543
Element set:    0503
Inclination:      098.2374 deg
RA of node:       084.5601 deg
Eccentricity:    0.0011943
Arg of perigee:   358.2949 deg
Mean anomaly:     001.8214 deg
Mean motion:   14.32057157 rev/day
Decay rate:       -5.0e-08 rev/day^2
Epoch rev:           00438
Checksum:              288

Satellite: AO-27
Catalog number: 22825
Epoch time:      09105.84020445
Element set:    0223
Inclination:      098.4323 deg
RA of node:       061.2457 deg
Eccentricity:    0.0009364
Arg of perigee:   086.7531 deg
Mean anomaly:     273.4743 deg
Mean motion:   14.29262963 rev/day
Decay rate:        3.8e-07 rev/day^2
Epoch rev:           81100
Checksum:              289

